STARLINK-4525, 53401

Orbit data source: Space-Track

STARLINK-4525, 53401 is a payload satellite owned by SpaceX/Seattle (US) in LEO that was launched on Wed, 10 Aug 2022 UTC via an FALCON 9 launch vehicle from the Air Force Eastern Test Range (AFETR). Payload-class satellites include a variety of spacecraft equipped with specific instruments for various scientific and technological missions. These include communications satellites like Starlink; space stations such as the ISS; scientific satellites like the Hubble; Earth observation satellites from companies like Planet Labs, Umbra, and HawkEye 360; GPS; miniature CubeSats for education and research; and military/defense satellites.

Loading next visibility...
Identifier
53401, 2022-097P
Orbit
LEO
Country
Flag of USUS
Related business
Manufacturer
SpaceX/Seattle
Mission
Operational Commercial Communications
Bus & Motor
STARLINK, Unknown motor
Mass
297 kg wet, ~275 kg dry
Launch date (UTC)
2022-08-10 (4 years ago)
Launch vehicle
FALCON 9
Launch site
Air Force Eastern Test Range (AFETR)
Object type
Payload
Rocket body
Debris
Shape & HBR
Box + 1 Pan, 10.1 m
Radar Cross Section
13.562 m², Large (>1 m²)

Expand to show TLE details & history
Last TLE update: 8 hours ago

TLE from 8 hours ago
0 STARLINK-4525
1 53401U 22097P   26168.77167366  .00002358  00000-0  16612-3 0  9996
2 53401  53.1605  34.7366 0001436  91.7959 268.3197 15.08852268213623
Epoch: 2026-06-17T18:31Z
TLE epoch observation values (Epoch: 2026-06-17T18:31:12.604Z)
Latitude
-0°
Longitude
-149.09048°
Altitude
540.627 km
Speed
7.593 km/s
True Right ascension
02h 18m 56s
True Declination
0° 00' 00"
Sunlit
Object was in daylight at epoch
Visualization orbit readout
Latitude
Unknown
Longitude
Unknown
Altitude
Unknown
Speed
Unknown
Apparent Right ascension
Unknown
Apparent Declination
Unknown
Sunlit
N/A
Visualization observer readout
Local Sidereal Time
13:08:24
Azimuth
Unknown
Elevation
Unknown
Doppler factor
Unknown
Orbital elements
Apogee altitude
540.953 km
Perigee altitude
538.966 km
Semi-major axis
6,918.097 km
Eccentricity
0.00014
Inclination
53.1605°
RAAN
34.7366°
Arg. of periapsis
91.7959°
True anomaly
268.30325°
Mean anomaly
268.3197°
Eccentric anomaly
268.31148°
Mean motion
3.77193 °/min
Orbital period
95.44 mins
BSTAR
0.00016612
Loading maneuver chart data...
Computing Atmospheric mass density...
Loading historical data...
Loading historical data...
Loading historical data...
Loading historical data...
Loading historical data...
Loading historical data...
Loading historical data...

Documentation

Showing up to 5 results
|